Weather History for K1A6 - February, 2013

Change the Weather History Date:

Thursday, February 14, 2013

  Actual Average (KLOZ) Record (KLOZ)
Temperature  
Mean Temperature 42 °F 39 °F  
Max Temperature 55 °F 49 °F 70 °F (1959)
Min Temperature 30 °F 29 °F 3 °F (1960)
Degree Days  
Heating Degree Days 22 26  
Month to date heating degree days 379  
Since 1 July heating degree days 2942  
Cooling Degree Days 0 0  
Month to date cooling degree days 0  
Year to date cooling degree days 0  
Moisture  
Dew Point 35 °F    
Average Humidity 83    
Maximum Humidity 100    
Minimum Humidity 51    
Precipitation  
Precipitation 0.00 in 0.14 in 1.45 in (1970)
Month to date precipitation 1.82  
Year to date precipitation 5.36  
Sea Level Pressure  
Sea Level Pressure 30.01 in    
Wind  
Wind Speed 2 mph (South)    
Max Wind Speed 10 mph    
Max Gust Speed 17 mph    
Visibility 9 miles    
Events      
T = Trace of Precipitation, MM = Missing Value Source: NWS Daily Summary

Daily Weather History Graph

Daily Weather History Graph

Search for Another Location

Airport or City:

Trip Planner

Search our weather history database for the weather conditions in past years. The results will help you decide how hot, cold, wet, or windy it might be!

Date:

Astronomy

Feb. 14, 2013 Rise Set
Actual Time 6:23 AM CST 5:14 PM CST
Civil Twilight 5:57 AM CST 5:41 PM CST
Nautical Twilight 5:27 AM CST 6:11 PM CST
Astronomical Twilight 4:57 AM CST 6:41 PM CST
Moon 8:34 AM CST (2/14) 10:06 PM CST (2/14)
Length of Visible Light 11h 43m
Length of Day
10h 50m
Waxing Crescent, 22% of the Moon is Illuminated
Feb 14
Waxing Crescent
Feb 17
First Quarter
Feb 25
Full
Mar 4
Last Quarter
Mar 11
New

Hourly Weather History & Observations

Time (CST) Temp. Windchill Dew Point Humidity Pressure Visibility Wind Dir Wind Speed Gust Speed Precip Events Conditions
12:15 AM 37.4 °F - 35.6 °F 93% 29.99 in 10.0 mi Calm Calm - N/A   Overcast
12:35 AM 37.4 °F - 35.6 °F 93% 29.99 in 10.0 mi Calm Calm - N/A   Overcast
12:55 AM 35.6 °F - 35.6 °F 100% 29.99 in 10.0 mi Calm Calm - N/A   Overcast
1:15 AM 35.6 °F - 35.6 °F 100% 29.99 in 10.0 mi Calm Calm - N/A   Overcast
1:35 AM 35.6 °F - 35.6 °F 100% 29.99 in 10.0 mi Calm Calm - N/A   Overcast
1:55 AM 35.6 °F - 33.8 °F 93% 30.00 in - Calm Calm - N/A   Overcast
2:15 AM 35.6 °F - 33.8 °F 93% 30.00 in 10.0 mi Calm Calm - N/A   Overcast
2:35 AM 35.6 °F - 33.8 °F 93% 30.00 in 10.0 mi Calm Calm - N/A   Overcast
2:55 AM 35.6 °F - 33.8 °F 93% 29.99 in 10.0 mi Calm Calm - N/A   Mostly Cloudy
3:15 AM 33.8 °F - 33.8 °F 100% 29.99 in 10.0 mi Calm Calm - N/A   Mostly Cloudy
3:35 AM 32.0 °F - 30.2 °F 93% 29.99 in 5.0 mi North - - N/A   Scattered Clouds
3:55 AM 32.0 °F - 30.2 °F 93% 30.00 in 7.0 mi Calm Calm - N/A   Clear
4:15 AM 30.2 °F - 30.2 °F 100% 30.00 in 5.0 mi Calm Calm - N/A   Clear
4:35 AM 30.2 °F - 30.2 °F 100% 30.00 in 1.0 mi North - - N/A   Mist
4:55 AM 30.2 °F - 30.2 °F 100% 30.00 in 3.0 mi Calm Calm - N/A   Clear
5:15 AM 30.2 °F - 28.4 °F 93% 30.01 in 4.0 mi Calm Calm - N/A   Clear
5:35 AM 30.2 °F - 28.4 °F 93% 30.01 in 3.0 mi Calm Calm - N/A   Scattered Clouds
5:55 AM 30.2 °F - 28.4 °F 93% 30.01 in 4.0 mi Calm Calm - N/A   Scattered Clouds
6:15 AM 30.2 °F - 28.4 °F 93% 30.01 in 5.0 mi Calm Calm - N/A   Mostly Cloudy
6:35 AM 30.2 °F - 30.2 °F 100% 30.02 in 5.0 mi Calm Calm - N/A   Overcast
6:55 AM 30.2 °F - 28.4 °F 93% 30.02 in 5.0 mi Calm Calm - N/A   Overcast
7:15 AM 30.2 °F - 30.2 °F 100% 30.03 in 4.0 mi Calm Calm - N/A   Mostly Cloudy
7:35 AM 32.0 °F - 30.2 °F 93% 30.04 in 4.0 mi Calm Calm - N/A   Mostly Cloudy
7:55 AM 33.8 °F - 32.0 °F 93% 30.04 in 4.0 mi Calm Calm - N/A   Scattered Clouds
8:15 AM 33.8 °F - 33.8 °F 100% 30.04 in 5.0 mi Calm Calm - N/A   Clear
8:35 AM 37.4 °F - 35.6 °F 93% 30.05 in 10.0 mi Calm Calm - N/A   Clear
8:55 AM 41.0 °F 39.0 °F 35.6 °F 81% 30.05 in 10.0 mi SSE 3.5 mph - N/A   Clear
9:15 AM 42.8 °F 39.3 °F 35.6 °F 76% 30.05 in 10.0 mi SSW 5.8 mph - N/A   Scattered Clouds
9:35 AM 44.6 °F 40.2 °F 35.6 °F 71% 30.05 in 10.0 mi South 8.1 mph - N/A   Clear
9:55 AM 44.6 °F 40.7 °F 35.6 °F 71% 30.04 in 10.0 mi SW 6.9 mph - N/A   Clear
10:15 AM 44.6 °F - 35.6 °F 71% 30.03 in 10.0 mi Calm Calm - N/A   Clear
10:35 AM 46.4 °F 41.9 °F 37.4 °F 71% 30.03 in 10.0 mi South 9.2 mph - N/A   Scattered Clouds
10:55 AM 46.4 °F 42.4 °F 35.6 °F 66% 30.03 in 10.0 mi South 8.1 mph - N/A   Scattered Clouds
11:15 AM 48.2 °F - 37.4 °F 66% 30.02 in 10.0 mi SSE 4.6 mph - N/A   Scattered Clouds
11:35 AM 50.0 °F - 37.4 °F 62% 30.01 in 10.0 mi SSE 5.8 mph - N/A   Clear
11:55 AM 50.0 °F - 37.4 °F 62% 30.01 in 10.0 mi South 9.2 mph 17.3 mph N/A   Scattered Clouds
12:15 PM 51.8 °F - 37.4 °F 58% 30.00 in 10.0 mi South 8.1 mph - N/A   Scattered Clouds
12:35 PM 51.8 °F - 37.4 °F 58% 29.99 in 10.0 mi South 9.2 mph - N/A   Scattered Clouds
12:55 PM 53.6 °F - 37.4 °F 54% 29.98 in 10.0 mi SSW 6.9 mph 17.3 mph N/A   Scattered Clouds
1:15 PM 53.6 °F - 37.4 °F 54% 29.96 in 10.0 mi SSW 5.8 mph 17.3 mph N/A   Scattered Clouds
1:35 PM 53.6 °F - 37.4 °F 54% 29.96 in 10.0 mi SSW 9.2 mph - N/A   Clear
1:55 PM 53.6 °F - 37.4 °F 54% 29.96 in 10.0 mi SSW 6.9 mph - N/A   Clear
2:35 PM 53.6 °F - 37.4 °F 54% 29.96 in 10.0 mi South 9.2 mph - N/A   Mostly Cloudy
2:55 PM - - - N/A% 29.96 in - South 6.9 mph - N/A   Unknown
3:15 PM 53.6 °F - 37.4 °F 54% 29.97 in 10.0 mi South 10.4 mph - N/A   Mostly Cloudy
3:35 PM 55.4 °F - 37.4 °F 51% 29.97 in 10.0 mi SSW 8.1 mph - N/A   Mostly Cloudy
3:55 PM 53.6 °F - 37.4 °F 54% 29.98 in 10.0 mi SSW 5.8 mph - N/A   Scattered Clouds
4:15 PM 53.6 °F - 37.4 °F 54% 29.98 in 10.0 mi SSW 5.8 mph - N/A   Mostly Cloudy
4:35 PM 51.8 °F - 37.4 °F 58% 29.98 in 10.0 mi South 5.8 mph - N/A   Mostly Cloudy
4:55 PM 51.8 °F - 37.4 °F 58% 29.98 in 10.0 mi SSW 3.5 mph - N/A   Scattered Clouds
5:15 PM 51.8 °F - 37.4 °F 58% 29.99 in 10.0 mi Calm Calm - N/A   Mostly Cloudy
5:35 PM 48.2 °F - 37.4 °F 66% 29.99 in 10.0 mi Calm Calm - N/A   Scattered Clouds
5:55 PM 46.4 °F - 37.4 °F 71% 30.00 in 10.0 mi Calm Calm - N/A   Clear
6:15 PM 44.6 °F - 37.4 °F 76% 30.01 in 10.0 mi Calm Calm - N/A   Clear
6:35 PM 42.8 °F - 37.4 °F 81% 30.01 in 10.0 mi Calm Calm - N/A   Clear
6:55 PM 42.8 °F - 37.4 °F 81% 30.01 in 10.0 mi Calm Calm - N/A   Clear
7:15 PM 39.2 °F - 37.4 °F 93% 30.01 in 10.0 mi Calm Calm - N/A   Clear
7:35 PM 39.2 °F - 37.4 °F 93% 30.01 in 10.0 mi Calm Calm - N/A   Clear
7:55 PM 37.4 °F - 35.6 °F 93% 30.01 in 10.0 mi Calm Calm - N/A   Clear
8:15 PM 37.4 °F - 35.6 °F 93% 30.01 in 10.0 mi Calm Calm - N/A   Clear
8:35 PM 37.4 °F - 35.6 °F 93% 30.01 in 10.0 mi Calm Calm - N/A   Clear
8:55 PM 35.6 °F - 35.6 °F 100% 30.02 in 10.0 mi Calm Calm - N/A   Clear
9:15 PM 35.6 °F - 33.8 °F 93% 30.02 in 10.0 mi Calm Calm - N/A   Clear
9:35 PM 33.8 °F - 33.8 °F 100% 30.02 in 10.0 mi Calm Calm - N/A   Clear
9:55 PM 33.8 °F - 33.8 °F 100% 30.02 in 10.0 mi Calm Calm - N/A   Clear
10:15 PM 33.8 °F - 33.8 °F 100% 30.03 in 10.0 mi Calm Calm - N/A   Clear
10:35 PM 33.8 °F - 33.8 °F 100% 30.02 in 10.0 mi Calm Calm - N/A   Scattered Clouds
10:55 PM 33.8 °F - 33.8 °F 100% 30.02 in 10.0 mi Calm Calm - N/A   Scattered Clouds
11:15 PM 33.8 °F - 33.8 °F 100% 30.03 in 10.0 mi Calm Calm - N/A   Mostly Cloudy
11:35 PM 33.8 °F - 33.8 °F 100% 30.03 in 10.0 mi Calm Calm - N/A   Mostly Cloudy
11:55 PM 33.8 °F - 33.8 °F 100% 30.03 in 7.0 mi Calm Calm - N/A   Scattered Clouds